FENGYUN 1C DEB

Satellite information

Favourite Embed

Satellite Type and Status

DEBRISIN ORBIT

Key statistics

Satellite FENGYUN 1C DEB at a glance.

Uptime

9554

Days in orbit

Revolutions

≈ 13.5

Per day

Orbit

SSO

Sun Synchronous Orbit

Inclination

99.4

Latest

Satellite identification and parameters

Extended collection of information and parameters for FENGYUN 1C DEB.

Object identification

Identified? True

Debris? True

Object name: FENGYUN 1C DEB

International designator: 1999-025CVF

Object number (NORAD): 32209

Object ID (CCSDS): 32209

Country: PEOPLES REPUBLIC OF CHINA (PRC)

Current information (Y/N): Y

RCS size: SMALL

Orbital parameters

Period: 106.933 minutes

Inclination: 99.4086 deg

SMA: 7462.802 km

Apoapsis: 1334.928 km

Periapsis: 834.406 km

RAAN: 140.71 deg

Eccentricy: 0.0335345

Argument of periapsis: 72.019 deg

Mean anomaly: 291.7191 deg

Mean motion: 13.46634997 rev/day

Mean motion (dot): 0.00001272 rev/day2

B* drag term: 0.0015433 1/REarth

Two-line elements (TLE)

Creation date: July 2, 2025, 10:56 p.m.

Reference frame: TEME

Reference center: EARTH

Epoch: July 2, 2025, 8:07 p.m. UTC

TLE line 0: 0 FENGYUN 1C DEB

TLE line 1: 1 32209U 99025CVF 25183.83854975 .00001272 00000-0 15433-2 0 9999

TLE line 2: 2 32209 99.4086 140.7100 0335345 72.0190 291.7191 13.46634997878723

Live tracking on map

Real-time ground track for satellite FENGYUN 1C DEB.

In-orbit conjunctions

A list of the most updated potential collisions computed for object FENGYUN 1C DEB.

Target Orbit TCA Probability of collision Miss distance Type
COSMOS 2353 LEO 2025-04-04 07:47:48 0.000140987 334.0 (m) PAYLOAD
CZ-6A DEB SSO 2024-11-13 14:09:29 0.0002440586 893.0 (m) DEBRIS

Associated space launch

Chinese polar orbiting meteorological satellite

FENGYUN 1C DEB was lifted into orbit during the mission ‘Long March 4B | Feng Yun 1C’, on board a Long March 4B space rocket.

The launch took place on May 10, 1999, 1:33 a.m. from Launch Complex 7.

For more information about the launch, click the button.

Launch to space Long March 4B | Feng Yun 1C
Long March 4B | Feng Yun 1C

Agency: N/A

Status: Launch Successful

Launch date: May 10, 1999, 1:33 a.m. UTC

Rocket: Long March 4B

Launch pad: Launch Complex 7

Location: Taiyuan Satellite Launch Center, People's Republic of China

...

Latest news about this satellite

There are no fresh news available about this satellite. Check back as we update our databases every day.


Newsletter sign-up

Weekly statistics, charts and insights to help you stay on top of the space industry.